星链-2586 (STARLINK-2586 )

导读 | 豆包AI

STARLINK-2586是美国SpaceX公司星链卫星互联网项目中的一颗卫星,于2021年5月4日发射升空,属于星链计划低轨卫星星座组网卫星,旨在为全球提供高速低延迟卫星互联网服务,丰富了星链星座的在轨规模,推动了全球卫星互联网基础设施建设。

基本信息
目录编号:
48390
目录名称:
STARLINK-2586
国际标识:
2021-038AP
轨道中心:
EARTH
卫星名称:
星链-2586
卫星全名:
星链-2586 (STARLINK-2586 )
卫星状态:
在轨 (已飞行1775 天)
发射日期:
2021-05-04 UTC
国别 :
美国 (US)
星等 :
--
轨道信息
数据来源 国际轨道数据
星历时间: 2026-03-14T07:23:47+0800
17小时前
查看轨道信息
半长轴: 6853.388km
偏心率: 0.0001118
轨道倾角: 53.161°
近地点辐角 88.526°
升交点赤经 312.750°
平近点角 271.587°
近地点: 474.484km
远地点: 476.018km
周期: 94.106分钟
每日圈数: 15.301882
详细信息
固有亮度:
5
最大亮度:
2.5
卫星平台:
Starlink V1.0
覆盖范围:
全球
运营商:
太空探索技术公司
运营商所在国:
美国
制造商(研发单位):
太空探索技术公司
制造商所在国:
美国
使用方式:
暂无
卫星简介
星链(Starlink)计划是由太空探索技术公司(SpaceX)提出的一个巨型低轨卫星互联网星座项目,计划在2019年至2024年间在太空搭建由约1.2万颗卫星组成的“星链”网络,其中1584颗将部署在地球上空550千米处的近地轨道,并从2020年开始工作。该卫星仍在工作。
2D轨道图
3D轨道图
轨道高度分析图
轨道倾角分析图
轨道综合分析图
查看轨道综合分析图